Regional Weather Roundup
Issued by NWS State College, PA

Home | Current Version | Previous Version | Text Only | Print | Product List | Glossary On
Versions: 1 2 3 4 5 6 7 8 9 10 11 12 13 14 15 16 17 18 19 20 21 22 23 24 25 26 27 28 29 30 31 32 33 34 35 36 37 38 39 40 41 42 43 44 45 46 47 48 49 50
000
ASUS41 KCTP 240803
RWRCTP

REGIONAL WEATHER ROUNDUP
NATIONAL WEATHER SERVICE STATE COLLEGE PA
400 AM EDT SUN MAY 24 2015

Note: "fair" indicates few or no clouds below 12,000 feet with no
significant weather and/or obstructions to visibility.

* = STATION THAT DOES NOT REPORT PRECIPITATION /E.G. RAIN...SNOW...ETC/
    THUNDER OR FOG.

PAZ002>004-007>009-013>016-020>023-029>032-240900-
WESTERN PENNSYLVANIA

CITY           SKY/WX    TMP DP  RH WIND       PRES   REMARKS
ERIE           CLEAR     53  37  54 S7        30.29S
MEADVILLE      CLEAR     53  36  52 CALM      30.31S
FRANKLIN*      CLEAR     48  34  57 CALM      30.33F
NEW CASTLE     FAIR      43  42  96 CALM      30.33S
BEAVER COUNTY  NOT AVBL
BUTLER*        CLEAR     43  39  87 E3        30.34S
PITTSBURGH INT CLEAR     50  42  74 CALM      30.32S
PITTSBURGH     CLEAR     49  42  77 SE6       30.32S
INDIANA*       PTCLDY    43  41  93 E3        30.37S
LATROBE        CLEAR     43  43 100 CALM      30.35F
WASHINGTON CO* CLEAR     39  36  87 CALM      30.34F
$$

PAZ004>006-010>012-017>019-024>028-033>037-041-042-045-046-049>053-240900-
CENTRAL PENNSYLVANIA

CITY           SKY/WX    TMP DP  RH WIND       PRES   REMARKS
BRADFORD       CLEAR     34  31  88 CALM      30.33F
DUBOIS         CLEAR     46  34  62 CALM      30.33S
CLEARFIELD     CLEAR     39  34  82 CALM      30.36S
JOHNSTOWN      CLEAR     49  35  58 SW7       30.35F
ALTOONA        CLEAR     46  37  71 W3        30.36F
STATE COLLEGE  CLEAR     46  35  67 S5        30.35S
WILLIAMSPORT   CLEAR     42  37  82 NW3       30.36S
SELINSGROVE    CLEAR     41  39  93 CALM      30.36F
FT INDIANTOWN  CLEAR     41  39  93 N2        30.36F
CAPITAL CITY   CLEAR     47  41  80 SW3       30.36F
HARRISBURG     PTCLDY    51  42  71 CALM      30.36F
YORK           CLEAR     43  41  93 CALM      30.37S
$$

PAZ038>040-043-044-047-048-054-055-060>062-067>071-240900-
EASTERN PENNSYLVANIA

CITY           SKY/WX    TMP DP  RH WIND       PRES   REMARKS
SCRANTON       CLEAR     42  34  73 CALM      30.34F
MOUNT POCONO   CLEAR     47  32  56 W8        30.34F
ALLENTOWN      CLEAR     42  35  76 CALM      30.36F
QUAKERTOWN*    SUNNY     39  37  93 CALM      30.37S
READING        CLEAR     47  40  76 CALM      30.36F
LANCASTER      CLEAR     47  41  80 CALM      30.36F
COATESVILLE    SUNNY     52  45  76 W5        30.37F
POTTSTOWN      CLEAR     43  39  86 CALM      30.38S
BLUE BELL      CLEAR     43  41  93 CALM      30.36F
DOYLESTOWN     CLEAR     47  37  68 S3        30.36S
WILLOW GROVE   NOT AVBL
NORTH PHILA    CLEAR     48  41  76 CALM      30.39S
PHILADELPHIA   PTCLDY    54  46  74 S7        30.38F
$$


USA.gov is the U.S. government's official web portal to all federal, state and local government web resources and services.